ATLAS D R/B, 2328

Orbit data source: Space-Track

ATLAS D R/B, 2328 is space debris in LEO originally from a launch on Thu, 14 Jul 1966 UTC launched from the Air Force Western Test Range (AFWTR). Debris objects in space refer to the collection of defunct objects orbiting the Earth. Examples of debris include non-operational satellites, rocket bodies, and fragments generated from explosions, collisions, or faulty payload assembly.

Loading next visibility...
Identifier
2328, 1966-063C
Orbit
LEO
Country
Flag of USUS
Related business
Manufacturer
ABL
Mission
Spacecraft
Bus & Motor
ALTAIR, Unknown motor
Mass
~125 kg wet, ~125 kg dry
Launch date (UTC)
1966-07-14 (60 years ago)
Launch vehicle
Unknown
Launch site
Air Force Western Test Range (AFWTR)
Object type
Payload
Rocket body
Debris
Shape & HBR
Unknown
Radar Cross Section
Medium (>0.1 m² and <1 m²)

Expand to show TLE details & history
Last TLE update: 5 hours ago

TLE from 5 hours ago
0 ATLAS D R/B
1  2328U 66063C   26127.71346463  .00000275  00000-0  31448-4 0  9996
2  2328 144.2290 200.4065 0010409 258.6310 255.3637 13.69980573994694
Epoch: 2026-05-07T17:07Z
TLE epoch observation values (Epoch: 2026-05-07T17:07:23.344Z)
Latitude
14.9575°
Longitude
-80.34913°
Altitude
999.944 km
Speed
7.354 km/s
True Right ascension
02h 48m 12s
True Declination
14° 52' 29"
Sunlit
Object was in daylight at epoch
Visualization orbit readout
Latitude
Unknown
Longitude
Unknown
Altitude
Unknown
Speed
Unknown
Apparent Right ascension
Unknown
Apparent Declination
Unknown
Sunlit
N/A
Visualization observer readout
Local Sidereal Time
05:41:43
Azimuth
Unknown
Elevation
Unknown
Doppler factor
Unknown
Orbital elements
Apogee altitude
1,010.239 km
Perigee altitude
994.873 km
Semi-major axis
7,380.693 km
Eccentricity
0.00104
Inclination
144.229°
RAAN
200.4065°
Arg. of periapsis
258.631°
True anomaly
255.24833°
Mean anomaly
255.3637°
Eccentric anomaly
255.30601°
Mean motion
3.42293 °/min
Orbital period
105.17 mins
BSTAR
0.000031448
Loading maneuver chart data...
Computing Atmospheric mass density...
Loading historical data...
Loading historical data...
Loading historical data...
Loading historical data...
Loading historical data...
Loading historical data...
Loading historical data...

Documentation

Showing up to 5 results
|